Year,Month,Day,Hour,Minute,Value (Times are PST for temperature in C)
2009,06,27,00,00,8.80
2009,06,27,00,01,8.80
2009,06,27,00,02,8.80
2009,06,27,00,03,8.80
2009,06,27,00,04,8.80
2009,06,27,00,05,8.80
2009,06,27,00,06,8.80
2009,06,27,00,07,8.80
2009,06,27,00,08,8.70
2009,06,27,00,09,8.70
2009,06,27,00,10,8.70
2009,06,27,00,11,8.70
2009,06,27,00,12,8.70
2009,06,27,00,13,8.70
2009,06,27,00,14,8.70
2009,06,27,00,15,8.60
2009,06,27,00,16,8.60
2009,06,27,00,17,8.60
2009,06,27,00,18,8.60
2009,06,27,00,19,8.60
2009,06,27,00,20,8.60
2009,06,27,00,21,8.60
2009,06,27,00,22,8.60
2009,06,27,00,23,8.60
2009,06,27,00,24,8.60
2009,06,27,00,25,8.60
2009,06,27,00,26,8.60
2009,06,27,00,27,8.50
2009,06,27,00,28,8.50
2009,06,27,00,29,8.50
2009,06,27,00,30,8.50
2009,06,27,00,31,8.50
2009,06,27,00,32,8.50
2009,06,27,00,33,8.50
2009,06,27,00,34,8.50
2009,06,27,00,35,8.50
2009,06,27,00,36,8.40
2009,06,27,00,37,8.40
2009,06,27,00,38,8.40
2009,06,27,00,39,8.40
2009,06,27,00,40,8.40
2009,06,27,00,41,8.40
2009,06,27,00,42,8.40
2009,06,27,00,43,8.30
2009,06,27,00,44,8.30
2009,06,27,00,45,8.30
2009,06,27,00,46,8.30
2009,06,27,00,47,8.30
2009,06,27,00,48,8.30
2009,06,27,00,49,8.30
2009,06,27,00,50,8.30
2009,06,27,00,51,8.30
2009,06,27,00,52,8.30
2009,06,27,00,53,8.30
2009,06,27,00,54,8.20
2009,06,27,00,55,8.20
2009,06,27,00,56,8.20
2009,06,27,00,57,8.20
2009,06,27,00,58,8.20
2009,06,27,00,59,8.20
2009,06,27,01,00,8.20
2009,06,27,01,01,8.20
2009,06,27,01,02,8.20
2009,06,27,01,03,8.20
2009,06,27,01,04,8.20
2009,06,27,01,05,8.20
2009,06,27,01,06,8.10
2009,06,27,01,07,8.10
2009,06,27,01,08,8.10
2009,06,27,01,09,8.10
2009,06,27,01,10,8.10
2009,06,27,01,11,8.10
2009,06,27,01,12,8.10
2009,06,27,01,13,8.10
2009,06,27,01,14,8.10
2009,06,27,01,15,8.10
2009,06,27,01,16,8.10
2009,06,27,01,17,8.10
2009,06,27,01,18,8.00
2009,06,27,01,19,8.00
2009,06,27,01,20,8.00
2009,06,27,01,21,8.00
2009,06,27,01,22,8.00
2009,06,27,01,23,8.00
2009,06,27,01,24,8.00
2009,06,27,01,25,8.00
2009,06,27,01,26,8.00
2009,06,27,01,27,7.90
2009,06,27,01,28,8.00
2009,06,27,01,29,7.90
2009,06,27,01,30,8.00
2009,06,27,01,31,7.90
2009,06,27,01,32,8.00
2009,06,27,01,33,8.00
2009,06,27,01,34,7.90
2009,06,27,01,35,7.90
2009,06,27,01,36,7.90
2009,06,27,01,37,7.90
2009,06,27,01,38,7.90
2009,06,27,01,39,7.90
2009,06,27,01,40,8.00
2009,06,27,01,41,8.00
2009,06,27,01,42,8.00
2009,06,27,01,43,8.00
2009,06,27,01,44,8.00
2009,06,27,01,45,8.00
2009,06,27,01,46,8.00
2009,06,27,01,47,8.00
2009,06,27,01,48,8.00
2009,06,27,01,49,8.00
2009,06,27,01,50,8.00
2009,06,27,01,51,8.00
2009,06,27,01,52,8.00
2009,06,27,01,53,8.00
2009,06,27,01,54,8.00
2009,06,27,01,55,8.00
2009,06,27,01,56,8.00
2009,06,27,01,57,8.10
2009,06,27,01,58,8.10
2009,06,27,01,59,8.10
2009,06,27,02,00,8.10
2009,06,27,02,01,8.10
2009,06,27,02,02,8.10
2009,06,27,02,03,8.10
2009,06,27,02,04,8.10
2009,06,27,02,05,8.10
2009,06,27,02,06,8.10
2009,06,27,02,07,8.10
2009,06,27,02,08,8.10
2009,06,27,02,09,8.10
2009,06,27,02,10,8.10
2009,06,27,02,11,8.10
2009,06,27,02,12,8.10
2009,06,27,02,13,8.10
2009,06,27,02,14,8.10
2009,06,27,02,15,8.10
2009,06,27,02,16,8.10
2009,06,27,02,17,8.10
2009,06,27,02,18,8.10
2009,06,27,02,19,8.10
2009,06,27,02,20,8.10
2009,06,27,02,21,8.10
2009,06,27,02,22,8.10
2009,06,27,02,23,8.10
2009,06,27,02,24,8.00
2009,06,27,02,25,8.00
2009,06,27,02,26,8.00
2009,06,27,02,27,8.00
2009,06,27,02,28,8.00
2009,06,27,02,29,8.00
2009,06,27,02,30,8.00
2009,06,27,02,31,8.00
2009,06,27,02,32,7.90
2009,06,27,02,33,7.90
2009,06,27,02,34,7.90
2009,06,27,02,35,7.90
2009,06,27,02,36,7.90
2009,06,27,02,37,7.90
2009,06,27,02,38,7.90
2009,06,27,02,39,7.90
2009,06,27,02,40,7.90
2009,06,27,02,41,7.90
2009,06,27,02,42,7.90
2009,06,27,02,43,7.90
2009,06,27,02,44,7.90
2009,06,27,02,45,7.90
2009,06,27,02,46,7.90
2009,06,27,02,47,7.90
2009,06,27,02,48,7.90
2009,06,27,02,49,7.90
2009,06,27,02,50,7.80
2009,06,27,02,51,7.80
2009,06,27,02,52,7.80
2009,06,27,02,53,7.80
2009,06,27,02,54,7.80
2009,06,27,02,55,7.80
2009,06,27,02,56,7.80
2009,06,27,02,57,7.80
2009,06,27,02,58,7.80
2009,06,27,02,59,7.80
2009,06,27,03,00,7.80
2009,06,27,03,01,7.80
2009,06,27,03,02,7.80
2009,06,27,03,03,7.80
2009,06,27,03,04,7.80
2009,06,27,03,05,7.80
2009,06,27,03,06,7.80
2009,06,27,03,07,7.80
2009,06,27,03,08,7.80
2009,06,27,03,09,7.70
2009,06,27,03,10,7.70
2009,06,27,03,11,7.70
2009,06,27,03,12,7.70
2009,06,27,03,13,7.70
2009,06,27,03,14,7.70
2009,06,27,03,15,7.70
2009,06,27,03,16,7.70
2009,06,27,03,17,7.70
2009,06,27,03,18,7.70
2009,06,27,03,19,7.60
2009,06,27,03,20,7.60
2009,06,27,03,21,7.60
2009,06,27,03,22,7.60
2009,06,27,03,23,7.60
2009,06,27,03,24,7.60
2009,06,27,03,25,7.60
2009,06,27,03,26,7.50
2009,06,27,03,27,7.50
2009,06,27,03,28,7.50
2009,06,27,03,29,7.50
2009,06,27,03,30,7.50
2009,06,27,03,31,7.50
2009,06,27,03,32,7.50
2009,06,27,03,33,7.50
2009,06,27,03,34,7.50
2009,06,27,03,35,7.50
2009,06,27,03,36,7.50
2009,06,27,03,37,7.50
2009,06,27,03,38,7.50
2009,06,27,03,39,7.50
2009,06,27,03,40,7.50
2009,06,27,03,41,7.50
2009,06,27,03,42,7.50
2009,06,27,03,43,7.50
2009,06,27,03,44,7.50
2009,06,27,03,45,7.50
2009,06,27,03,46,7.50
2009,06,27,03,47,7.40
2009,06,27,03,48,7.40
2009,06,27,03,49,7.40
2009,06,27,03,50,7.50
2009,06,27,03,51,7.50
2009,06,27,03,52,7.50
2009,06,27,03,53,7.50
2009,06,27,03,54,7.50
2009,06,27,03,55,7.50
2009,06,27,03,56,7.60
2009,06,27,03,57,7.60
2009,06,27,03,58,7.60
2009,06,27,03,59,7.60
2009,06,27,04,00,7.60
2009,06,27,04,01,7.60
2009,06,27,04,02,7.60
2009,06,27,04,03,7.60
2009,06,27,04,04,7.60
2009,06,27,04,05,7.60
2009,06,27,04,06,7.60
2009,06,27,04,07,7.60
2009,06,27,04,08,7.60
2009,06,27,04,09,7.60
2009,06,27,04,10,7.60
2009,06,27,04,11,7.60
2009,06,27,04,12,7.60
2009,06,27,04,13,7.70
2009,06,27,04,14,7.70
2009,06,27,04,15,7.60
2009,06,27,04,16,7.60
2009,06,27,04,17,7.60
2009,06,27,04,18,7.60
2009,06,27,04,19,7.60
2009,06,27,04,20,7.60
2009,06,27,04,21,7.60
2009,06,27,04,22,7.60
2009,06,27,04,23,7.60
2009,06,27,04,24,7.60
2009,06,27,04,25,7.60
2009,06,27,04,26,7.60
2009,06,27,04,27,7.60
2009,06,27,04,28,7.60
2009,06,27,04,29,7.60
2009,06,27,04,30,7.60
2009,06,27,04,31,7.60
2009,06,27,04,32,7.50
2009,06,27,04,33,7.50
2009,06,27,04,34,7.50
2009,06,27,04,35,7.40
2009,06,27,04,36,7.40
2009,06,27,04,37,7.40
2009,06,27,04,38,7.40
2009,06,27,04,39,7.30
2009,06,27,04,40,7.30
2009,06,27,04,41,7.30
2009,06,27,04,42,7.30
2009,06,27,04,43,7.30
2009,06,27,04,44,7.30
2009,06,27,04,45,7.20
2009,06,27,04,46,7.20
2009,06,27,04,47,7.20
2009,06,27,04,48,7.20
2009,06,27,04,49,7.20
2009,06,27,04,50,7.20
2009,06,27,04,51,7.20
2009,06,27,04,52,7.20
2009,06,27,04,53,7.20
2009,06,27,04,54,7.20
2009,06,27,04,55,7.20
2009,06,27,04,56,7.10
2009,06,27,04,57,7.10
2009,06,27,04,58,7.10
2009,06,27,04,59,7.10
2009,06,27,05,00,7.10
2009,06,27,05,01,7.10
2009,06,27,05,02,7.10
2009,06,27,05,03,7.00
2009,06,27,05,04,7.00
2009,06,27,05,05,7.00
2009,06,27,05,06,7.00
2009,06,27,05,07,7.00
2009,06,27,05,08,7.00
2009,06,27,05,09,6.90
2009,06,27,05,10,6.90
2009,06,27,05,11,6.90
2009,06,27,05,12,6.90
2009,06,27,05,13,6.90
2009,06,27,05,14,6.90
2009,06,27,05,15,7.00
2009,06,27,05,16,7.00
2009,06,27,05,17,7.00
2009,06,27,05,18,7.00
2009,06,27,05,19,7.00
2009,06,27,05,20,7.10
2009,06,27,05,21,7.10
2009,06,27,05,22,7.00
2009,06,27,05,23,7.10
2009,06,27,05,24,7.10
2009,06,27,05,25,7.10
2009,06,27,05,26,7.10
2009,06,27,05,27,7.10
2009,06,27,05,28,7.10
2009,06,27,05,29,7.10
2009,06,27,05,30,7.10
2009,06,27,05,31,7.10
2009,06,27,05,32,7.10
2009,06,27,05,33,7.10
2009,06,27,05,34,7.10
2009,06,27,05,35,7.10
2009,06,27,05,36,7.10
2009,06,27,05,37,7.10
2009,06,27,05,38,7.10
2009,06,27,05,39,7.10
2009,06,27,05,40,7.00
2009,06,27,05,41,7.00
2009,06,27,05,42,7.00
2009,06,27,05,43,7.00
2009,06,27,05,44,7.00
2009,06,27,05,45,7.00
2009,06,27,05,46,7.00
2009,06,27,05,47,7.00
2009,06,27,05,48,7.00
2009,06,27,05,49,7.00
2009,06,27,05,50,7.00
2009,06,27,05,51,7.00
2009,06,27,05,52,7.10
2009,06,27,05,53,7.10
2009,06,27,05,54,7.10
2009,06,27,05,55,7.10
2009,06,27,05,56,7.10
2009,06,27,05,57,7.10
2009,06,27,05,58,7.10
2009,06,27,05,59,7.10
2009,06,27,06,00,7.10
2009,06,27,06,01,7.10
2009,06,27,06,02,7.10
2009,06,27,06,03,7.10
2009,06,27,06,04,7.10
2009,06,27,06,05,7.10
2009,06,27,06,06,7.10
2009,06,27,06,07,7.10
2009,06,27,06,08,7.10
2009,06,27,06,09,7.10
2009,06,27,06,10,7.20
2009,06,27,06,11,7.20
2009,06,27,06,12,7.20
2009,06,27,06,13,7.20
2009,06,27,06,14,7.20
2009,06,27,06,15,7.20
2009,06,27,06,16,7.20
2009,06,27,06,17,7.20
2009,06,27,06,18,7.20
2009,06,27,06,19,7.20
2009,06,27,06,20,7.20
2009,06,27,06,21,7.20
2009,06,27,06,22,7.20
2009,06,27,06,23,7.20
2009,06,27,06,24,7.30
2009,06,27,06,25,7.30
2009,06,27,06,26,7.30
2009,06,27,06,27,7.30
2009,06,27,06,28,7.30
2009,06,27,06,29,7.30
2009,06,27,06,30,7.30
2009,06,27,06,31,7.30
2009,06,27,06,32,7.30
2009,06,27,06,33,7.30
2009,06,27,06,34,7.40
2009,06,27,06,35,7.40
2009,06,27,06,36,7.40
2009,06,27,06,37,7.40
2009,06,27,06,38,7.40
2009,06,27,06,39,7.40
2009,06,27,06,40,7.50
2009,06,27,06,41,7.50
2009,06,27,06,42,7.50
2009,06,27,06,43,7.50
2009,06,27,06,44,7.60
2009,06,27,06,45,7.60
2009,06,27,06,46,7.60
2009,06,27,06,47,7.70
2009,06,27,06,48,7.70
2009,06,27,06,49,7.70
2009,06,27,06,50,7.70
2009,06,27,06,51,7.80
2009,06,27,06,52,7.80
2009,06,27,06,53,7.80
2009,06,27,06,54,7.90
2009,06,27,06,55,7.90
2009,06,27,06,56,8.00
2009,06,27,06,57,8.10
2009,06,27,06,58,8.20
2009,06,27,06,59,8.30
2009,06,27,07,00,8.30
2009,06,27,07,01,8.40
2009,06,27,07,02,8.50
2009,06,27,07,03,8.60
2009,06,27,07,04,8.70
2009,06,27,07,05,8.70
2009,06,27,07,06,8.70
2009,06,27,07,07,8.80
2009,06,27,07,08,8.80
2009,06,27,07,09,8.90
2009,06,27,07,10,8.90
2009,06,27,07,11,9.00
2009,06,27,07,12,9.10
2009,06,27,07,13,9.10
2009,06,27,07,14,9.20
2009,06,27,07,15,9.30
2009,06,27,07,16,9.40
2009,06,27,07,17,9.50
2009,06,27,07,18,9.60
2009,06,27,07,19,9.70
2009,06,27,07,20,9.80
2009,06,27,07,21,9.90
2009,06,27,07,22,10.00
2009,06,27,07,23,10.00
2009,06,27,07,24,10.10
2009,06,27,07,25,10.20
2009,06,27,07,26,10.30
2009,06,27,07,27,10.30
2009,06,27,07,28,10.40
2009,06,27,07,29,10.40
2009,06,27,07,30,10.50
2009,06,27,07,31,10.50
2009,06,27,07,32,10.60
2009,06,27,07,33,10.60
2009,06,27,07,34,10.60
2009,06,27,07,35,10.60
2009,06,27,07,36,10.60
2009,06,27,07,37,10.70
2009,06,27,07,38,10.70
2009,06,27,07,39,10.80
2009,06,27,07,40,10.80
2009,06,27,07,41,10.90
2009,06,27,07,42,10.90
2009,06,27,07,43,11.00
2009,06,27,07,44,11.10
2009,06,27,07,45,11.20
2009,06,27,07,46,11.20
2009,06,27,07,47,11.30
2009,06,27,07,48,11.40
2009,06,27,07,49,11.40
2009,06,27,07,50,11.50
2009,06,27,07,51,11.60
2009,06,27,07,52,11.60
2009,06,27,07,53,11.70
2009,06,27,07,54,11.80
2009,06,27,07,55,11.90
2009,06,27,07,56,12.10
2009,06,27,07,57,12.20
2009,06,27,07,58,12.30
2009,06,27,07,59,12.40
2009,06,27,08,00,12.50
2009,06,27,08,01,12.60
2009,06,27,08,02,12.70
2009,06,27,08,03,12.80
2009,06,27,08,04,13.00
2009,06,27,08,05,13.00
2009,06,27,08,06,13.10
2009,06,27,08,07,13.20
2009,06,27,08,08,13.30
2009,06,27,08,09,13.40
2009,06,27,08,10,13.50
2009,06,27,08,11,13.60
2009,06,27,08,12,13.70
2009,06,27,08,13,13.80
2009,06,27,08,14,13.90
2009,06,27,08,15,14.00
2009,06,27,08,16,14.10
2009,06,27,08,17,14.20
2009,06,27,08,18,14.20
2009,06,27,08,19,14.30
2009,06,27,08,20,14.30
2009,06,27,08,21,14.40
2009,06,27,08,22,14.40
2009,06,27,08,23,14.50
2009,06,27,08,24,14.50
2009,06,27,08,25,14.50
2009,06,27,08,26,14.50
2009,06,27,08,27,14.50
2009,06,27,08,28,14.60
2009,06,27,08,29,14.60
2009,06,27,08,30,14.70
2009,06,27,08,31,14.70
2009,06,27,08,32,14.80
2009,06,27,08,33,14.90
2009,06,27,08,34,15.00
2009,06,27,08,35,15.00
2009,06,27,08,36,15.00
2009,06,27,08,37,15.00
2009,06,27,08,38,15.10
2009,06,27,08,39,15.20
2009,06,27,08,40,15.30
2009,06,27,08,41,15.50
2009,06,27,08,42,15.60
2009,06,27,08,43,15.70
2009,06,27,08,44,15.70
2009,06,27,08,45,15.70
2009,06,27,08,46,15.80
2009,06,27,08,47,15.80
2009,06,27,08,48,15.80
2009,06,27,08,49,15.80
2009,06,27,08,50,15.90
2009,06,27,08,51,15.90
2009,06,27,08,52,16.00
2009,06,27,08,53,16.00
2009,06,27,08,54,16.00
2009,06,27,08,55,15.90
2009,06,27,08,56,15.80
2009,06,27,08,57,15.80
2009,06,27,08,58,15.80
2009,06,27,08,59,15.70
2009,06,27,09,00,15.80
2009,06,27,09,01,15.80
2009,06,27,09,02,15.80
2009,06,27,09,03,15.70
2009,06,27,09,04,15.70
2009,06,27,09,05,15.70
2009,06,27,09,06,15.70
2009,06,27,09,07,15.70
2009,06,27,09,08,15.70
2009,06,27,09,09,15.80
2009,06,27,09,10,15.80
2009,06,27,09,11,15.80
2009,06,27,09,12,15.90
2009,06,27,09,13,15.90
2009,06,27,09,14,16.00
2009,06,27,09,15,16.10
2009,06,27,09,16,16.10
2009,06,27,09,17,16.20
2009,06,27,09,18,16.20
2009,06,27,09,19,16.20
2009,06,27,09,20,16.30
2009,06,27,09,21,16.30
2009,06,27,09,22,16.40
2009,06,27,09,23,16.40
2009,06,27,09,24,16.40
2009,06,27,09,25,16.30
2009,06,27,09,26,16.30
2009,06,27,09,27,16.30
2009,06,27,09,28,16.20
2009,06,27,09,29,16.20
2009,06,27,09,30,16.10
2009,06,27,09,31,16.00
2009,06,27,09,32,16.00
2009,06,27,09,33,16.00
2009,06,27,09,34,15.90
2009,06,27,09,35,15.90
2009,06,27,09,36,15.80
2009,06,27,09,37,15.80
2009,06,27,09,38,15.80
2009,06,27,09,39,15.80
2009,06,27,09,40,15.80
2009,06,27,09,41,15.80
2009,06,27,09,42,15.90
2009,06,27,09,43,15.90
2009,06,27,09,44,16.00
2009,06,27,09,45,16.00
2009,06,27,09,46,16.10
2009,06,27,09,47,16.20
2009,06,27,09,48,16.30
2009,06,27,09,49,16.40
2009,06,27,09,50,16.40
2009,06,27,09,51,16.40
2009,06,27,09,52,16.40
2009,06,27,09,53,16.40
2009,06,27,09,54,16.40
2009,06,27,09,55,16.50
2009,06,27,09,56,16.50
2009,06,27,09,57,16.60
2009,06,27,09,58,16.60
2009,06,27,09,59,16.70
2009,06,27,10,00,16.70
2009,06,27,10,01,16.80
2009,06,27,10,02,16.90
2009,06,27,10,03,17.10
2009,06,27,10,04,17.20
2009,06,27,10,05,17.30
2009,06,27,10,06,17.40
2009,06,27,10,07,17.50
2009,06,27,10,08,17.60
2009,06,27,10,09,17.70
2009,06,27,10,10,17.70
2009,06,27,10,11,17.70
2009,06,27,10,12,17.80
2009,06,27,10,13,17.80
2009,06,27,10,14,17.80
2009,06,27,10,15,17.80
2009,06,27,10,16,17.80
2009,06,27,10,17,17.70
2009,06,27,10,18,17.70
2009,06,27,10,19,17.70
2009,06,27,10,20,17.60
2009,06,27,10,21,17.60
2009,06,27,10,22,17.50
2009,06,27,10,23,17.50
2009,06,27,10,24,17.60
2009,06,27,10,25,17.60
2009,06,27,10,26,17.60
2009,06,27,10,27,17.60
2009,06,27,10,28,17.60
2009,06,27,10,29,17.50
2009,06,27,10,30,17.50
2009,06,27,10,31,17.50
2009,06,27,10,32,17.50
2009,06,27,10,33,17.50
2009,06,27,10,34,17.50
2009,06,27,10,35,17.40
2009,06,27,10,36,17.30
2009,06,27,10,37,17.30
2009,06,27,10,38,17.20
2009,06,27,10,39,17.20
2009,06,27,10,40,17.20
2009,06,27,10,41,17.20
2009,06,27,10,42,17.20
2009,06,27,10,43,17.20
2009,06,27,10,44,17.20
2009,06,27,10,45,17.20
2009,06,27,10,46,17.30
2009,06,27,10,47,17.30
2009,06,27,10,48,17.30
2009,06,27,10,49,17.30
2009,06,27,10,50,17.30
2009,06,27,10,51,17.30
2009,06,27,10,52,17.40
2009,06,27,10,53,17.40
2009,06,27,10,54,17.30
2009,06,27,10,55,17.30
2009,06,27,10,56,17.30
2009,06,27,10,57,17.30
2009,06,27,10,58,17.30
2009,06,27,10,59,17.20
2009,06,27,11,00,17.30
2009,06,27,11,01,17.30
2009,06,27,11,02,17.30
2009,06,27,11,03,17.40
2009,06,27,11,04,17.40
2009,06,27,11,05,17.50
2009,06,27,11,06,17.60
2009,06,27,11,07,17.60
2009,06,27,11,08,17.70
2009,06,27,11,09,17.70
2009,06,27,11,10,17.70
2009,06,27,11,11,17.80
2009,06,27,11,12,17.80
2009,06,27,11,13,17.80
2009,06,27,11,14,17.80
2009,06,27,11,15,17.80
2009,06,27,11,16,17.80
2009,06,27,11,17,17.80
2009,06,27,11,18,17.80
2009,06,27,11,19,17.80
2009,06,27,11,20,17.80
2009,06,27,11,21,17.80
2009,06,27,11,22,17.80
2009,06,27,11,23,17.80
2009,06,27,11,24,17.90
2009,06,27,11,25,17.90
2009,06,27,11,26,17.90
2009,06,27,11,27,18.00
2009,06,27,11,28,18.00
2009,06,27,11,29,18.00
2009,06,27,11,30,18.10
2009,06,27,11,31,18.10
2009,06,27,11,32,18.20
2009,06,27,11,33,18.20
2009,06,27,11,34,18.20
2009,06,27,11,35,18.20
2009,06,27,11,36,18.20
2009,06,27,11,37,18.20
2009,06,27,11,38,18.20
2009,06,27,11,39,18.30
2009,06,27,11,40,18.30
2009,06,27,11,41,18.40
2009,06,27,11,42,18.50
2009,06,27,11,43,18.50
2009,06,27,11,44,18.50
2009,06,27,11,45,18.50
2009,06,27,11,46,18.50
2009,06,27,11,47,18.50
2009,06,27,11,48,18.50
2009,06,27,11,49,18.60
2009,06,27,11,50,18.70
2009,06,27,11,51,18.70
2009,06,27,11,52,18.70
2009,06,27,11,53,18.70
2009,06,27,11,54,18.80
2009,06,27,11,55,18.80
2009,06,27,11,56,18.90
2009,06,27,11,57,18.90
2009,06,27,11,58,19.00
2009,06,27,11,59,18.90
2009,06,27,12,00,18.90
2009,06,27,12,01,18.80
2009,06,27,12,02,18.80
2009,06,27,12,03,18.90
2009,06,27,12,04,18.90
2009,06,27,12,05,19.00
2009,06,27,12,06,19.10
2009,06,27,12,07,19.10
2009,06,27,12,08,19.00
2009,06,27,12,09,19.00
2009,06,27,12,10,19.00
2009,06,27,12,11,19.00
2009,06,27,12,12,19.00
2009,06,27,12,13,19.10
2009,06,27,12,14,19.10
2009,06,27,12,15,19.20
2009,06,27,12,16,19.20
2009,06,27,12,17,19.30
2009,06,27,12,18,19.30
2009,06,27,12,19,19.20
2009,06,27,12,20,19.20
2009,06,27,12,21,19.20
2009,06,27,12,22,19.20
2009,06,27,12,23,19.30
2009,06,27,12,24,19.50
2009,06,27,12,25,19.60
2009,06,27,12,26,19.70
2009,06,27,12,27,19.80
2009,06,27,12,28,19.90
2009,06,27,12,29,20.00
2009,06,27,12,30,20.20
2009,06,27,12,31,20.30
2009,06,27,12,32,20.30
2009,06,27,12,33,20.40
2009,06,27,12,34,20.40
2009,06,27,12,35,20.40
2009,06,27,12,36,20.40
2009,06,27,12,37,20.50
2009,06,27,12,38,20.60
2009,06,27,12,39,20.60
2009,06,27,12,40,20.70
2009,06,27,12,41,20.80
2009,06,27,12,42,21.00
2009,06,27,12,43,21.10
2009,06,27,12,44,21.20
2009,06,27,12,45,21.30
2009,06,27,12,46,21.20
2009,06,27,12,47,21.10
2009,06,27,12,48,21.00
2009,06,27,12,49,20.90
2009,06,27,12,50,20.90
2009,06,27,12,51,20.90
2009,06,27,12,52,21.00
2009,06,27,12,53,21.10
2009,06,27,12,54,21.10
2009,06,27,12,55,21.10
2009,06,27,12,56,21.20
2009,06,27,12,57,21.30
2009,06,27,12,58,21.30
2009,06,27,12,59,21.40
2009,06,27,13,00,21.40
2009,06,27,13,01,21.40
2009,06,27,13,02,21.40
2009,06,27,13,03,21.40
2009,06,27,13,04,21.40
2009,06,27,13,05,21.40
2009,06,27,13,06,21.40
2009,06,27,13,07,21.50
2009,06,27,13,08,21.60
2009,06,27,13,09,21.70
2009,06,27,13,10,21.80
2009,06,27,13,11,21.80
2009,06,27,13,12,21.90
2009,06,27,13,13,21.90
2009,06,27,13,14,22.00
2009,06,27,13,15,22.10
2009,06,27,13,16,22.10
2009,06,27,13,17,22.20
2009,06,27,13,18,22.30
2009,06,27,13,19,22.30
2009,06,27,13,20,22.30
2009,06,27,13,21,22.30
2009,06,27,13,22,22.20
2009,06,27,13,23,22.30
2009,06,27,13,24,22.30
2009,06,27,13,25,22.30
2009,06,27,13,26,22.40
2009,06,27,13,27,22.40
2009,06,27,13,28,22.30
2009,06,27,13,29,22.30
2009,06,27,13,30,22.40
2009,06,27,13,31,22.50
2009,06,27,13,32,22.60
2009,06,27,13,33,22.60
2009,06,27,13,34,22.70
2009,06,27,13,35,22.80
2009,06,27,13,36,22.90
2009,06,27,13,37,23.00
2009,06,27,13,38,23.10
2009,06,27,13,39,23.10
2009,06,27,13,40,23.20
2009,06,27,13,41,23.20
2009,06,27,13,42,23.20
2009,06,27,13,43,23.30
2009,06,27,13,44,23.30
2009,06,27,13,45,23.30
2009,06,27,13,46,23.40
2009,06,27,13,47,23.40
2009,06,27,13,48,23.50
2009,06,27,13,49,23.60
2009,06,27,13,50,23.60
2009,06,27,13,51,23.60
2009,06,27,13,52,23.70
2009,06,27,13,53,23.70
2009,06,27,13,54,23.60
2009,06,27,13,55,23.60
2009,06,27,13,56,23.60
2009,06,27,13,57,23.60
2009,06,27,13,58,23.60
2009,06,27,13,59,23.60
2009,06,27,14,00,23.60
2009,06,27,14,01,23.60
2009,06,27,14,02,23.60
2009,06,27,14,03,23.60
2009,06,27,14,04,23.50
2009,06,27,14,05,23.50
2009,06,27,14,06,23.40
2009,06,27,14,07,23.40
2009,06,27,14,08,23.40
2009,06,27,14,09,23.40
2009,06,27,14,10,23.30
2009,06,27,14,11,23.30
2009,06,27,14,12,23.20
2009,06,27,14,13,23.00
2009,06,27,14,14,22.90
2009,06,27,14,15,22.80
2009,06,27,14,16,22.80
2009,06,27,14,17,22.70
2009,06,27,14,18,22.60
2009,06,27,14,19,22.60
2009,06,27,14,20,22.60
2009,06,27,14,21,22.50
2009,06,27,14,22,22.40
2009,06,27,14,23,22.40
2009,06,27,14,24,22.40
2009,06,27,14,25,22.40
2009,06,27,14,26,22.40
2009,06,27,14,27,22.40
2009,06,27,14,28,22.50
2009,06,27,14,29,22.60
2009,06,27,14,30,22.60
2009,06,27,14,31,22.60
2009,06,27,14,32,22.60
2009,06,27,14,33,22.70
2009,06,27,14,34,22.60
2009,06,27,14,35,22.50
2009,06,27,14,36,22.40
2009,06,27,14,37,22.30
2009,06,27,14,38,22.30
2009,06,27,14,39,22.20
2009,06,27,14,40,22.20
2009,06,27,14,41,22.10
2009,06,27,14,42,22.00
2009,06,27,14,43,21.90
2009,06,27,14,44,21.80
2009,06,27,14,45,21.80
2009,06,27,14,46,21.70
2009,06,27,14,47,21.70
2009,06,27,14,48,21.60
2009,06,27,14,49,21.60
2009,06,27,14,50,21.60
2009,06,27,14,51,21.60
2009,06,27,14,52,21.60
2009,06,27,14,53,21.60
2009,06,27,14,54,21.50
2009,06,27,14,55,21.50
2009,06,27,14,56,21.50
2009,06,27,14,57,21.50
2009,06,27,14,58,21.50
2009,06,27,14,59,21.60
2009,06,27,15,00,21.50
2009,06,27,15,01,21.50
2009,06,27,15,02,21.50
2009,06,27,15,03,21.50
2009,06,27,15,04,21.50
2009,06,27,15,05,21.50
2009,06,27,15,06,21.50
2009,06,27,15,07,21.50
2009,06,27,15,08,21.50
2009,06,27,15,09,21.50
2009,06,27,15,10,21.40
2009,06,27,15,11,21.40
2009,06,27,15,12,21.30
2009,06,27,15,13,21.30
2009,06,27,15,14,21.30
2009,06,27,15,15,21.30
2009,06,27,15,16,21.30
2009,06,27,15,17,21.30
2009,06,27,15,18,21.30
2009,06,27,15,19,21.30
2009,06,27,15,20,21.30
2009,06,27,15,21,21.30
2009,06,27,15,22,21.30
2009,06,27,15,23,21.30
2009,06,27,15,24,21.20
2009,06,27,15,25,21.20
2009,06,27,15,26,21.20
2009,06,27,15,27,21.20
2009,06,27,15,28,21.10
2009,06,27,15,29,21.10
2009,06,27,15,30,21.10
2009,06,27,15,31,21.10
2009,06,27,15,32,21.10
2009,06,27,15,33,21.10
2009,06,27,15,34,21.10
2009,06,27,15,35,21.10
2009,06,27,15,36,21.00
2009,06,27,15,37,21.00
2009,06,27,15,38,21.10
2009,06,27,15,39,21.10
2009,06,27,15,40,21.10
2009,06,27,15,41,21.10
2009,06,27,15,42,21.10
2009,06,27,15,43,21.10
2009,06,27,15,44,21.10
2009,06,27,15,45,21.10
2009,06,27,15,46,21.10
2009,06,27,15,47,21.10
2009,06,27,15,48,21.20
2009,06,27,15,49,21.20
2009,06,27,15,50,21.20
2009,06,27,15,51,21.10
2009,06,27,15,52,21.10
2009,06,27,15,53,21.10
2009,06,27,15,54,21.10
2009,06,27,15,55,21.10
2009,06,27,15,56,21.10
2009,06,27,15,57,21.10
2009,06,27,15,58,21.10
2009,06,27,15,59,21.10
2009,06,27,16,00,21.10
2009,06,27,16,01,21.10
2009,06,27,16,02,21.00
2009,06,27,16,03,20.90
2009,06,27,16,04,20.90
2009,06,27,16,05,20.80
2009,06,27,16,06,20.80
2009,06,27,16,07,20.80
2009,06,27,16,08,20.80
2009,06,27,16,09,20.70
2009,06,27,16,10,20.70
2009,06,27,16,11,20.70
2009,06,27,16,12,20.70
2009,06,27,16,13,20.70
2009,06,27,16,14,20.70
2009,06,27,16,15,20.70
2009,06,27,16,16,20.70
2009,06,27,16,17,20.60
2009,06,27,16,18,20.60
2009,06,27,16,19,20.60
2009,06,27,16,20,20.60
2009,06,27,16,21,20.60
2009,06,27,16,22,20.60
2009,06,27,16,23,20.60
2009,06,27,16,24,20.60
2009,06,27,16,25,20.60
2009,06,27,16,26,20.50
2009,06,27,16,27,20.50
2009,06,27,16,28,20.50
2009,06,27,16,29,20.50
2009,06,27,16,30,20.50
2009,06,27,16,31,20.50
2009,06,27,16,32,20.50
2009,06,27,16,33,20.50
2009,06,27,16,34,20.50
2009,06,27,16,35,20.60
2009,06,27,16,36,20.60
2009,06,27,16,37,20.60
2009,06,27,16,38,20.60
2009,06,27,16,39,20.60
2009,06,27,16,40,20.70
2009,06,27,16,41,20.70
2009,06,27,16,42,20.70
2009,06,27,16,43,20.80
2009,06,27,16,44,20.80
2009,06,27,16,45,20.80
2009,06,27,16,46,20.90
2009,06,27,16,47,21.00
2009,06,27,16,48,21.00
2009,06,27,16,49,21.10
2009,06,27,16,50,21.20
2009,06,27,16,51,21.20
2009,06,27,16,52,21.30
2009,06,27,16,53,21.30
2009,06,27,16,54,21.30
2009,06,27,16,55,21.30
2009,06,27,16,56,21.20
2009,06,27,16,57,21.10
2009,06,27,16,58,21.10
2009,06,27,16,59,21.00
2009,06,27,17,00,20.90
2009,06,27,17,01,20.90
2009,06,27,17,02,20.70
2009,06,27,17,03,20.60
2009,06,27,17,04,20.40
2009,06,27,17,05,20.30
2009,06,27,17,06,20.20
2009,06,27,17,07,20.10
2009,06,27,17,08,20.00
2009,06,27,17,09,19.90
2009,06,27,17,10,19.90
2009,06,27,17,11,19.80
2009,06,27,17,12,19.70
2009,06,27,17,13,19.70
2009,06,27,17,14,19.60
2009,06,27,17,15,19.50
2009,06,27,17,16,19.40
2009,06,27,17,17,19.40
2009,06,27,17,18,19.40
2009,06,27,17,19,19.40
2009,06,27,17,20,19.30
2009,06,27,17,21,19.30
2009,06,27,17,22,19.30
2009,06,27,17,23,19.30
2009,06,27,17,24,19.20
2009,06,27,17,25,19.20
2009,06,27,17,26,19.10
2009,06,27,17,27,19.10
2009,06,27,17,28,19.00
2009,06,27,17,29,19.00
2009,06,27,17,30,18.90
2009,06,27,17,31,18.90
2009,06,27,17,32,18.80
2009,06,27,17,33,18.80
2009,06,27,17,34,18.80
2009,06,27,17,35,18.80
2009,06,27,17,36,18.80
2009,06,27,17,37,18.80
2009,06,27,17,38,18.80